EHI
0 0 0 0 0 0 0 0 0 0 0 0 0 0 0 1 2 3 4 4 5 9 14 15 12 12 16 20 23 25 23 19 19 20 18 15 13 13 12 9 6 4 4 4
0 0 0 0 0 0 0 0 0 0 0 0 0 0 0 0 1 2 3 4 5 8 13 15 16 16 18 19 20 21 21 20 19 20 19 15 13 11 10 9 8 6 5 5
0 0 0 0 0 0 0 0 0 0 0 0 0 0 0 0 0 1 2 3 5 8 11 15 18 19 18 15 15 16 20 21 21 22 21 17 13 9 7 9 10 8 7 7
0 0 0 0 0 0 0 0 0 0 0 0 0 0 0 0 0 0 1 3 5 7 10 13 17 18 17 13 12 15 20 22 22 22 21 17 12 7 6 8 9 10 9 9
0 0 0 0 0 0 0 0 0 0 0 0 0 0 0 0 0 0 1 2 4 7 8 10 13 15 16 14 13 15 19 21 19 19 17 14 11 7 6 7 7 8 8 8
0 0 0 0 0 0 0 0 0 0 0 0 0 0 0 0 0 0 0 1 4 7 9 9 11 13 14 15 14 14 17 18 17 15 13 11 10 9 8 7 5 5 6 7
0 0 0 0 0 0 0 0 0 0 0 0 0 0 0 0 0 0 1 2 3 7 10 12 11 11 12 13 12 12 15 17 16 15 13 9 8 8 7 7 5 4 6 8
0 0 0 0 0 0 0 0 0 0 0 0 0 0 0 0 0 0 1 2 3 6 9 12 13 10 10 11 10 11 15 16 14 14 13 8 6 6 5 5 4 4 6 7
0 0 0 0 0 0 0 0 0 0 0 0 0 0 1 1 1 0 1 2 3 4 6 10 11 10 9 10 9 9 12 14 12 12 11 9 7 6 4 3 3 3 4 5
0 0 0 0 0 0 0 0 0 0 0 0 0 0 1 1 1 0 1 2 3 4 6 9 10 9 10 9 7 7 9 10 11 10 9 8 7 6 5 4 4 4 3 3
0 0 0 0 0 0 0 0 0 0 0 0 0 0 0 0 0 0 0 1 2 4 8 10 10 9 8 7 4 5 7 9 8 8 7 6 6 6 6 5 5 4 4 3
0 0 0 0 0 0 0 0 0 0 0 0 0 0 1 0 0 0 0 1 1 4 8 10 10 8 6 5 4 4 6 8 6 4 5 6 5 5 5 5 4 4 3 3
0 0 0 0 0 0 0 0 0 0 0 0 0 1 2 2 1 1 0 1 2 4 7 8 7 5 4 5 4 4 4 4 3 2 3 5 5 6 6 5 4 3 3 3
0 0 0 0 0 0 0 0 0 0 0 0 0 1 2 3 2 2 1 1 2 4 5 5 4 4 5 5 4 2 2 1 1 1 2 3 5 6 7 6 6 5 5 4
0 0 0 0 0 0 0 0 0 0 0 0 0 0 1 1 2 2 1 1 2 3 3 4 5 5 5 5 3 1 2 1 0 0 1 2 3 5 7 8 9 9 8 7
0 0 0 0 0 0 0 0 0 0 0 0 0 0 0 0 1 2 2 2 2 1 2 5 8 8 7 5 2 1 2 2 1 0 0 1 2 4 6 8 10 11 11 10
0 0 0 0 0 0 0 0 0 0 1 0 0 0 0 0 1 2 3 3 3 1 2 6 9 9 9 6 3 2 3 3 2 1 1 1 2 3 5 6 7 9 10 10
0 0 0 0 0 0 0 0 0 0 0 0 0 0 0 0 1 1 2 4 4 2 2 5 7 8 8 7 5 4 5 4 3 2 2 2 2 3 4 4 4 6 8 9
0 0 0 0 0 0 0 0 0 0 0 0 1 1 1 0 1 2 3 3 3 2 3 4 5 6 7 7 7 6 5 4 3 2 2 3 3 3 2 3 3 4 5 7
0 0 0 0 0 0 0 0 0 0 0 0 1 2 2 1 1 2 3 3 3 3 3 3 5 6 7 8 8 6 4 3 1 1 1 2 3 2 1 1 2 2 3 3
0 0 0 0 0 0 0 0 0 1 1 0 1 1 2 2 1 1 2 4 4 4 3 3 5 6 7 8 8 7 5 3 1 0 0 1 2 1 0 0 1 1 1 1
0 0 0 0 0 1 1 1 1 2 2 1 0 0 2 2 1 2 4 5 4 4 4 5 6 6 7 8 10 10 7 4 1 0 0 0 1 1 0 0 0 0 0 0
0 0 0 0 0 1 1 1 2 2 3 2 1 1 1 2 1 2 4 3 3 3 5 6 7 7 8 8 10 11 10 6 2 0 1 1 0 0 0 0 0 0 0 0
0 0 0 0 0 0 0 1 1 1 2 2 1 1 1 1 0 1 1 1 1 2 3 5 6 7 7 8 9 11 11 8 4 2 2 2 1 0 0 0 0 0 0 0
0 0 0 0 0 0 0 0 0 0 1 1 1 0 0 0 0 0 0 0 0 0 1 2 3 4 5 6 8 10 11 8 5 3 3 2 1 0 0 0 0 0 0 0
0 0 0 0 0 0 0 0 0 0 0 0 0 0 0 0 0 0 0 0 0 1 1 1 1 2 3 5 7 11 11 7 4 4 3 2 1 0 0 0 0 0 0 0
Wind_Speed
8 10 10 8 8 9 8 10 11 9 4 8 10 10 7 6 7 7 7 8 7 6 6 6 6 6 6 6 6 6 6 6 5 5 5 5 5 4 4 3 5 5 5 5
9 13 10 7 7 9 10 12 11 7 3 7 9 10 7 7 8 7 7 8 7 6 6 7 7 7 7 7 7 7 7 7 6 5 4 3 4 4 4 4 4 5 5 5
13 5 4 8 10 11 11 11 10 9 6 8 9 11 9 7 7 7 7 7 7 7 7 7 7 7 7 7 7 6 7 7 7 6 5 4 4 4 4 5 5 5 6 6
11 8 7 10 10 10 11 7 9 10 10 8 7 10 6 6 6 7 7 7 7 6 7 7 7 8 7 7 7 7 7 7 7 7 6 7 6 5 5 5 4 5 6 6
8 6 8 10 8 9 8 5 8 10 11 11 9 10 5 5 6 6 6 6 6 6 6 7 7 7 6 6 6 6 6 7 7 7 7 7 6 5 5 5 5 5 5 5
9 5 6 7 6 6 5 6 9 10 10 11 8 9 5 2 3 3 4 5 6 5 6 6 6 5 5 5 5 5 6 6 7 7 7 7 7 6 6 6 6 6 5 5
10 10 8 7 7 7 7 8 7 8 8 7 3 6 4 3 2 1 2 4 5 5 6 6 6 5 5 5 5 5 6 6 7 7 7 7 7 7 7 7 6 6 5 4
9 8 7 7 8 6 7 9 8 8 8 6 4 5 1 3 2 1 1 3 4 5 6 6 6 5 5 5 5 5 6 6 6 7 6 6 6 5 5 6 5 5 4 4
6 5 5 6 6 7 8 9 9 10 11 10 5 3 2 2 2 2 2 3 4 5 5 6 5 5 5 6 6 6 6 6 6 6 6 6 6 5 5 6 6 5 4 4
7 8 6 6 7 8 9 6 6 8 8 9 7 6 3 1 2 2 3 4 4 5 5 6 6 5 5 5 5 5 5 5 5 5 5 4 5 5 5 5 5 5 5 4
7 8 7 8 9 8 8 8 8 8 7 8 8 3 3 2 2 2 2 3 3 5 5 6 5 5 5 5 5 5 4 4 3 3 3 4 4 5 5 5 5 5 5 5
5 7 9 9 6 6 9 9 9 8 8 8 9 4 4 2 2 2 1 2 2 3 4 5 5 5 5 5 5 5 4 4 3 3 3 4 4 5 5 5 5 5 5 6
4 7 9 9 8 8 8 8 9 10 9 8 10 5 3 1 1 2 1 1 3 4 4 4 4 4 4 4 5 5 4 4 3 3 3 3 4 4 5 5 5 5 5 5
6 9 11 11 7 5 7 8 8 10 9 9 10 9 3 3 3 2 1 1 3 4 5 4 4 4 4 4 4 4 4 4 4 4 3 3 3 3 4 4 4 5 5 5
5 8 9 10 9 8 9 9 9 11 10 10 9 7 5 4 4 3 2 1 2 4 5 5 4 4 4 4 4 4 4 4 4 4 3 3 3 3 3 3 3 4 4 5
4 6 8 9 9 9 9 8 8 9 8 9 8 6 3 4 3 2 1 1 2 3 3 5 5 5 5 5 4 4 4 4 4 4 3 3 3 3 3 3 3 3 3 4
5 5 7 9 8 9 9 6 7 7 5 7 7 5 4 3 3 2 1 1 1 1 2 4 4 4 4 5 4 5 5 4 4 4 3 3 3 3 3 3 3 3 3 4
6 6 6 7 8 10 1 2 4 4 2 4 5 4 4 4 3 2 2 1 1 1 0 2 3 4 4 4 4 4 5 5 4 4 3 3 3 3 3 3 3 3 3 3
6 7 6 6 9 6 3 1 4 4 2 4 5 4 4 3 1 2 4 3 2 2 1 1 2 3 4 4 4 4 4 4 4 4 3 3 3 3 3 3 3 3 3 4
5 6 7 7 9 7 1 4 4 5 3 4 5 4 4 3 3 2 4 3 2 2 1 1 2 3 4 4 4 4 4 4 4 3 3 3 3 3 3 2 2 2 3 3
3 5 6 7 7 1 4 6 4 3 3 6 5 4 4 4 5 4 3 2 2 2 1 0 2 3 3 4 4 4 4 4 3 3 2 2 2 2 3 2 2 2 3 3
4 4 4 5 5 1 6 4 3 4 5 5 4 4 4 4 3 3 2 2 2 1 1 0 2 2 3 4 4 4 4 3 3 3 3 2 3 3 2 2 3 3 3 4
2 3 3 2 2 5 5 4 4 4 5 5 5 5 4 4 4 3 2 1 1 1 1 1 1 2 3 3 4 4 3 3 4 3 3 3 3 3 3 3 4 4 4 4
0 2 2 2 1 3 4 4 5 5 5 5 5 5 5 5 4 3 2 1 1 1 1 1 1 2 2 3 3 3 4 4 4 4 4 4 4 4 4 4 4 4 4 4
3 2 2 3 3 3 3 5 6 5 5 5 5 4 4 4 4 3 2 2 2 1 1 2 2 2 2 2 2 3 3 4 4 4 4 4 5 4 4 4 4 5 4 4
2 3 4 3 4 5 6 7 7 7 6 5 5 5 4 4 3 3 3 2 2 2 2 2 2 2 2 2 2 2 3 4 4 5 5 4 4 4 4 4 4 2 4 3
Wind_Direction
201 227 229 231 242 272 281 274 274 279 286 268 261 264 259 240 233 228 215 208 206 201 187 177 177 174 169 168 171 173 170 164 168 167 173 174 172 172 167 166 162 169 168 165
215 231 239 247 248 253 256 261 267 273 265 271 269 267 258 245 233 228 219 210 206 199 184 177 179 177 176 177 177 173 175 171 177 170 173 168 168 172 170 169 169 172 170 171
237 249 220 235 238 246 252 259 275 286 285 248 263 258 236 231 221 216 219 217 210 199 192 183 181 184 182 183 183 181 180 179 181 172 168 161 164 168 170 177 175 178 179 181
243 241 230 240 244 248 256 260 269 273 271 266 253 278 240 216 220 218 213 209 209 200 194 189 185 186 188 188 186 183 182 180 180 181 180 179 179 180 181 181 170 174 182 184
234 228 236 245 249 250 267 282 262 263 266 274 254 266 262 197 230 219 202 203 204 199 195 195 191 189 185 185 186 185 184 183 183 186 186 191 192 186 175 175 167 177 176 183
251 236 244 254 251 247 258 254 245 242 251 255 257 265 270 251 258 233 193 196 201 195 194 196 188 182 178 177 180 182 182 186 185 187 190 198 195 189 179 180 174 181 174 179
231 220 211 228 234 208 230 253 253 241 239 255 240 253 281 350 0 281 203 181 187 190 191 189 183 176 175 178 178 178 179 184 185 186 191 196 197 192 187 188 182 184 181 182
240 223 199 210 236 247 229 250 266 280 279 282 230 248 329 55 56 101 159 165 169 181 185 181 177 171 174 176 178 177 175 179 183 184 189 192 197 198 189 189 186 188 192 184
254 238 180 201 225 243 236 239 266 276 278 277 258 251 203 149 176 181 176 177 180 183 183 174 171 171 175 176 178 179 175 179 185 186 186 188 193 199 192 182 192 187 187 184
264 261 229 210 216 218 253 256 247 259 274 274 262 253 265 217 244 232 213 197 186 180 179 173 172 170 170 168 166 169 175 180 183 185 186 184 186 193 195 193 192 190 190 193
250 256 239 218 226 234 216 226 241 258 270 279 281 284 42 5 307 262 221 200 183 177 173 167 167 164 160 157 158 162 166 166 169 176 176 178 183 189 194 195 197 196 197 198
239 257 255 243 240 259 247 244 240 253 257 259 275 282 69 26 345 305 257 208 173 160 159 157 155 155 155 158 157 159 161 159 167 171 173 178 181 187 195 198 200 200 204 207
254 242 248 234 212 209 231 240 246 254 262 261 266 265 104 41 345 327 299 192 167 158 150 145 146 150 154 155 153 151 155 159 162 162 165 171 181 187 197 201 201 205 210 213
269 248 254 264 278 265 242 244 245 249 253 261 264 278 300 329 329 334 324 201 176 164 158 156 151 152 147 145 143 148 158 160 160 162 166 173 182 188 195 200 206 209 211 215
269 252 254 263 269 265 259 257 249 247 259 266 275 281 309 338 327 325 323 234 189 178 170 166 167 160 153 149 148 153 159 159 161 165 171 181 185 183 187 193 204 212 217 220
284 268 262 255 246 250 254 262 258 254 265 267 274 282 332 328 327 330 313 246 210 189 173 168 171 169 165 162 163 164 163 160 167 173 175 174 180 185 188 197 205 208 218 227
254 254 257 253 243 250 246 264 264 251 263 276 279 302 324 327 337 339 334 253 231 212 182 170 173 174 169 166 166 170 166 164 172 177 179 179 186 189 198 204 203 211 221 227
252 253 251 256 247 242 174 13 312 273 289 312 316 327 324 326 332 351 24 27 350 342 210 168 164 162 167 161 162 166 163 166 173 175 182 186 192 196 200 208 216 227 228 226
231 244 253 251 246 230 160 351 321 283 265 343 327 331 334 331 282 91 48 31 16 9 19 106 156 160 158 158 161 162 163 167 172 175 183 192 199 201 205 217 232 237 233 229
199 231 248 247 250 247 14 352 318 267 224 26 347 329 327 308 283 49 35 21 28 28 38 115 150 150 153 157 162 167 168 170 181 185 192 194 204 208 212 221 236 238 240 238
220 224 239 250 248 219 4 338 299 251 3 357 346 344 335 338 344 355 360 15 24 27 28 123 155 161 164 164 168 180 182 186 192 188 187 189 203 215 217 221 225 236 245 250
277 270 250 253 245 245 14 10 4 357 352 350 351 352 350 346 338 341 357 18 22 17 8 37 169 169 170 176 182 189 193 194 190 186 191 198 213 224 212 228 235 237 247 247
299 332 312 315 21 36 22 19 13 353 351 353 346 347 344 329 321 325 334 346 358 358 353 293 210 190 185 190 196 195 193 194 192 194 203 212 219 230 230 229 232 235 240 249
133 340 284 261 85 19 8 7 1 344 342 341 336 333 329 325 318 315 313 318 311 312 316 290 235 207 196 201 210 206 194 197 200 205 207 215 220 224 227 242 242 248 248 252
326 291 276 274 323 330 345 344 340 331 332 332 330 326 323 321 318 314 311 315 314 324 314 294 272 236 209 205 213 212 202 203 207 212 215 219 223 227 229 239 255 259 260 267
303 300 291 308 326 308 317 323 322 320 320 321 321 324 323 321 319 316 315 315 309 308 303 293 278 257 226 215 215 215 214 213 218 219 220 226 233 232 235 236 234 253 265 253